Date,TemperatureHighF,TemperatureAvgF,TemperatureLowF,DewpointHighF,DewpointAvgF,DewpointLowF,HumidityHigh,HumidityAvg,HumidityLow,PressureMaxIn,PressureMinIn,WindSpeedMaxMPH,WindSpeedAvgMPH,GustSpeedMaxMPH,PrecipitationSumIn
2012-1-19,37.0,36.3,35.9,27.1,26.0,25.4,67,66,65,30.37,30.26,7,6,12,0.00
2012-1-20,43.7,40.2,37.0,37.9,32.6,26.1,84,74,64,30.25,29.99,10,6,14,0.03
2012-1-22,45.4,42.9,37.2,38.8,33.3,26.1,82,69,55,29.97,29.86,11,5,23,0.00
2012-1-23,43.6,43.2,42.8,39.3,38.9,38.4,87,85,82,30.00,29.97,3,2,4,0.00
2012-1-24,47.2,47.2,47.2,36.8,36.8,36.8,67,67,67,30.03,30.03,1,1,1,0.00
2012-1-25,47.4,44.7,43.1,43.4,42.4,41.9,96,91,85,29.77,29.64,5,1,6,0.00
2012-1-29,30.8,30.8,30.8,27.7,27.7,27.7,88,88,88,30.33,30.33,13,13,13,0.00
2012-1-30,31.6,28.3,24.1,28.4,25.2,20.3,95,88,75,30.33,30.29,16,11,26,0.00
2012-1-31,28.2,25.7,24.0,25.2,22.5,20.4,93,88,75,30.29,30.22,13,9,21,0.00
2012-2-1,31.2,28.8,27.3,27.4,26.0,24.6,94,89,79,30.36,30.29,13,7,18,0.00
2012-2-2,32.2,30.9,30.0,27.5,25.4,20.4,88,80,63,30.32,30.24,6,3,12,0.00
2012-2-3,32.0,31.7,31.2,27.1,26.7,26.2,83,81,81,30.33,30.32,4,3,6,0.00
2012-2-4,59.0,53.2,45.3,43.7,41.2,38.5,79,64,54,30.33,30.25,5,2,8,0.00
2012-2-5,59.9,56.9,50.3,38.2,36.7,34.7,58,47,41,30.21,30.13,7,4,11,0.00
2012-2-6,41.2,41.2,41.1,39.3,39.3,39.2,93,93,93,29.82,29.81,16,13,20,0.00
2012-2-7,43.1,40.7,35.6,41.5,39.4,34.8,97,95,94,29.88,29.63,18,8,26,0.72
2012-2-8,35.5,32.8,31.9,34.7,31.3,27.6,97,94,82,30.25,29.89,19,14,29,0.20
2012-2-9,33.4,31.3,30.0,30.7,29.6,28.3,96,93,84,30.23,30.13,15,11,23,0.01
2012-2-10,34.1,31.4,30.1,31.0,29.0,26.9,97,91,78,30.46,30.19,12,8,19,0.01
2012-2-11,37.9,33.4,28.5,31.9,29.0,25.5,91,84,75,30.46,30.34,9,4,14,0.01
2012-2-12,45.2,40.5,34.2,37.5,35.1,31.2,91,81,70,30.34,30.18,9,6,13,0.00
2012-2-13,55.7,46.4,34.5,41.8,36.5,30.9,97,72,40,30.05,29.81,6,2,10,0.12
2012-2-14,44.7,38.0,35.0,43.3,36.7,34.2,97,95,93,29.95,29.82,8,5,12,0.11
2012-2-15,34.5,32.7,31.9,33.7,31.9,31.1,97,97,97,29.85,29.73,7,4,11,0.16
2012-2-16,43.3,39.5,33.5,39.3,35.6,30.5,93,86,72,29.74,29.65,8,4,11,0.09
2012-2-17,33.2,30.3,28.7,31.6,26.8,24.5,96,87,77,30.06,29.74,17,10,26,0.00
2012-2-18,37.6,32.9,28.5,28.1,24.3,19.7,83,71,52,30.22,30.06,6,2,9,0.02
2012-2-19,42.0,36.2,30.7,32.5,29.7,26.4,89,77,61,30.44,30.22,7,2,10,0.00
2012-2-20,48.0,43.8,32.8,30.6,26.8,24.1,87,51,41,30.50,30.44,6,3,8,0.00
2012-2-21,50.9,42.0,35.2,35.4,29.1,24.5,93,62,41,30.50,30.43,8,3,10,0.00
2012-2-22,45.9,39.9,36.4,38.6,36.0,29.1,94,86,53,30.45,30.36,11,6,16,0.00
2012-2-23,44.2,39.6,35.2,37.6,35.8,33.2,94,86,76,30.37,30.07,11,6,17,0.00
2012-2-24,49.4,42.8,37.5,41.2,38.3,34.9,93,84,62,30.07,30.00,8,3,10,0.00
2012-2-25,49.2,42.9,41.0,43.6,35.3,-99.9,92,82,77,30.02,29.89,7,-30,13,0.09
2012-2-26,54.8,51.4,47.2,45.7,42.5,37.2,82,72,64,29.86,29.74,6,3,10,0.00
2012-2-27,47.7,39.5,33.1,39.3,36.6,31.6,96,90,68,29.90,29.71,18,8,21,0.57
2012-2-28,35.2,32.3,28.4,32.0,28.0,23.0,96,85,66,29.92,29.88,13,7,22,0.08
2012-2-29,36.8,33.1,29.4,28.5,22.5,17.4,91,66,47,29.88,29.70,8,4,12,0.02
2012-3-1,36.6,34.8,32.1,32.1,30.2,27.8,93,83,73,30.17,29.96,11,8,22,0.05
2012-3-2,44.1,41.1,35.2,37.2,32.1,27.2,80,70,57,30.17,30.01,7,4,11,0.02
2012-3-3,45.0,39.6,33.2,42.4,36.7,32.0,97,90,73,30.10,29.90,13,3,23,0.12
2012-3-4,46.7,40.1,34.3,35.4,33.3,29.3,95,78,52,30.18,30.10,8,3,12,0.01
2012-3-5,53.7,43.9,36.6,36.9,33.2,28.5,88,68,39,30.13,30.02,9,4,11,0.00
2012-3-6,44.5,39.3,35.4,34.2,30.9,27.3,86,72,59,30.27,30.09,9,6,14,0.00
2012-3-7,47.6,39.0,34.9,32.4,29.7,25.1,82,70,44,30.37,30.26,10,4,16,0.00
2012-3-8,48.7,42.5,37.6,36.3,33.9,29.4,84,72,51,30.33,30.23,6,3,9,0.01
2012-3-9,45.0,41.0,37.7,38.4,36.4,34.3,92,84,68,30.57,30.32,10,4,16,0.00
2012-3-10,41.9,39.3,37.0,36.4,33.6,30.2,91,80,68,30.56,30.38,9,5,17,0.00
2012-3-11,39.7,37.4,33.0,35.3,33.5,30.8,97,86,76,30.37,29.73,11,6,14,0.11
2012-3-12,39.5,37.0,33.0,38.2,35.5,32.0,97,94,87,29.99,29.64,11,7,18,0.43
2012-3-13,44.4,40.6,38.6,38.0,35.8,34.2,94,83,77,30.06,29.99,12,8,21,0.00
2012-3-14,46.4,42.5,39.5,38.3,35.7,33.1,86,77,63,30.14,30.01,8,4,14,0.00
2012-3-15,44.4,37.9,33.7,41.5,35.8,32.5,96,92,78,30.31,30.13,9,4,13,0.08
2012-3-16,44.0,38.6,32.9,33.6,27.7,20.2,94,67,40,30.45,30.32,8,4,15,0.01
2012-3-17,53.0,45.0,38.8,34.5,31.2,28.3,82,59,46,30.47,30.38,7,4,11,0.00
2012-3-18,62.5,56.2,48.3,44.0,37.5,34.1,78,50,38,30.39,30.31,7,4,10,0.00
2012-3-19,64.9,55.5,48.6,46.3,43.2,39.4,87,65,44,30.36,30.28,7,4,14,0.00
2012-3-20,62.9,50.5,44.4,50.3,46.0,42.2,93,85,58,30.48,30.32,8,4,13,0.00
2012-3-21,66.3,52.0,39.9,48.0,41.4,28.4,98,71,25,30.48,30.35,5,2,8,0.00
2012-3-22,61.7,52.1,44.4,43.2,41.0,36.9,83,67,40,30.42,30.37,9,2,12,0.00
2012-3-23,63.6,54.3,44.8,44.5,41.8,39.0,86,64,43,30.41,30.24,6,2,7,0.00
2012-3-24,71.0,56.6,45.4,45.1,42.1,39.4,86,61,36,30.24,30.15,4,2,5,0.00
2012-3-25,64.1,56.0,45.9,46.8,43.7,39.3,95,64,49,30.18,30.04,7,4,9,0.00
2012-3-26,60.3,49.6,44.4,46.8,39.9,34.6,77,69,57,30.22,29.98,14,5,23,0.00
2012-3-27,49.8,45.6,41.6,37.6,30.8,24.5,77,57,38,30.28,30.03,7,4,11,0.00
2012-3-28,52.5,48.2,44.8,40.9,36.5,28.2,75,64,49,30.12,29.99,8,3,11,0.00
2012-3-29,60.3,55.5,45.8,43.5,39.5,36.3,90,56,45,30.06,29.83,7,5,11,0.00
2012-3-30,57.6,52.3,45.4,49.9,44.1,35.4,93,75,48,29.84,29.61,9,4,19,0.43
2012-3-31,59.7,54.7,44.5,43.8,39.5,36.3,89,57,43,29.85,29.72,7,4,13,0.00
2012-4-1,66.0,54.0,40.0,49.3,43.0,38.1,95,68,51,29.94,29.64,13,7,23,0.29
2012-4-2,52.5,47.4,38.9,40.0,35.8,25.8,94,65,46,30.09,29.95,9,4,13,0.11
2012-4-3,62.7,57.1,44.1,42.8,41.1,39.7,85,56,45,30.14,30.06,6,4,10,0.00
2012-4-4,73.2,61.9,52.6,46.6,44.2,41.0,71,54,33,30.11,30.00,7,2,9,0.00
2012-4-5,67.6,59.4,55.6,50.1,47.6,44.8,78,66,45,30.03,29.91,3,2,5,0.00
2012-4-6,75.8,65.6,56.2,53.4,48.6,43.9,84,55,35,29.91,29.67,7,3,14,0.00
2012-4-7,74.7,66.0,57.3,54.8,52.0,48.6,83,62,40,29.72,29.63,6,3,11,0.00
2012-4-8,74.3,64.7,52.3,49.7,48.1,43.1,84,57,40,29.64,29.39,10,4,19,0.06
2012-4-9,53.2,44.0,42.5,47.8,41.8,40.7,95,92,81,29.78,29.47,8,6,14,0.47
2012-4-10,44.9,43.9,42.3,41.5,39.9,36.5,94,86,73,29.92,29.77,12,8,19,0.11
2012-4-11,48.9,44.7,41.9,43.5,41.6,40.1,95,89,80,29.94,29.84,6,3,8,0.05
2012-4-12,65.5,54.1,44.1,47.4,44.9,41.3,95,73,49,29.85,29.76,6,3,12,0.01
2012-4-13,70.7,60.8,51.2,51.5,48.0,44.5,88,65,40,29.84,29.68,6,3,9,0.00
2012-4-14,71.4,60.1,56.8,58.1,53.9,49.8,96,81,51,29.69,29.51,10,3,16,1.28
2012-4-15,68.3,60.2,54.6,53.1,48.9,45.1,78,67,48,29.72,29.57,9,5,20,0.00
2012-4-16,70.3,62.2,56.2,52.4,49.8,46.8,79,64,50,29.88,29.71,9,5,15,0.01
2012-4-17,77.0,68.8,59.2,51.2,47.2,40.9,74,48,28,29.88,29.67,5,2,10,0.00
2012-4-18,77.2,61.1,53.3,52.4,47.4,40.9,93,63,31,29.66,29.15,10,3,15,0.39
2012-4-19,67.3,60.3,53.2,52.3,48.5,40.5,95,67,44,29.75,29.23,6,4,18,0.03
2012-4-20,71.1,63.8,57.9,49.7,46.5,44.4,71,54,42,29.77,29.72,8,5,19,0.00
2012-4-21,62.2,60.5,58.9,48.6,46.3,44.3,67,60,55,29.73,29.71,3,2,5,0.00
2012-4-23,71.5,65.7,54.7,51.5,45.8,36.8,82,49,39,30.02,29.95,6,3,9,0.00
2012-4-24,64.5,58.2,55.1,51.1,46.1,43.0,70,64,56,29.97,29.94,3,1,3,0.00
2012-4-25,83.6,76.1,64.4,53.4,49.0,45.7,64,40,27,29.97,29.82,5,2,7,0.00
2012-4-26,68.2,62.1,55.9,49.7,45.7,42.8,67,55,45,30.06,29.89,8,4,12,0.00
2012-4-27,64.1,58.2,52.9,51.5,48.4,43.4,94,71,56,30.08,30.03,10,5,14,0.12
2012-4-28,62.5,55.7,52.2,54.2,52.2,50.7,98,89,70,30.08,30.03,9,6,17,0.00
2012-4-29,63.3,55.7,51.7,54.1,52.1,50.9,99,88,70,30.09,30.02,11,6,16,0.00
2012-4-30,62.7,57.9,51.9,56.0,53.7,50.5,95,86,76,30.03,29.97,9,6,13,0.00
2012-5-1,66.8,58.1,51.2,55.3,52.2,49.8,97,82,61,30.02,29.96,8,4,13,0.00
2012-5-2,62.6,57.0,52.8,56.7,53.1,50.8,97,87,76,29.95,29.82,10,4,15,0.00
2012-5-3,67.0,59.6,54.1,58.4,54.9,53.0,98,85,66,29.77,29.70,9,5,11,0.00
2012-5-4,71.4,60.2,53.0,60.2,55.9,52.6,99,87,66,29.75,29.70,5,2,8,0.00
2012-5-5,78.8,65.4,53.0,60.1,56.9,52.3,98,76,44,29.84,29.74,7,2,12,0.01
2012-5-6,76.9,67.6,60.3,60.6,58.1,54.3,94,73,48,29.93,29.82,7,3,10,0.00
2012-5-7,78.7,69.7,61.8,62.7,59.0,55.1,92,70,48,29.98,29.93,6,3,9,0.00
2012-5-8,76.5,65.1,56.9,60.6,56.7,54.4,92,76,53,29.99,29.92,10,6,13,0.00
2012-5-9,63.1,59.3,56.9,57.2,55.6,54.2,93,88,79,30.09,29.97,11,6,13,0.00
2012-5-10,66.1,62.0,59.6,58.8,57.6,56.1,93,86,75,30.14,30.08,7,5,12,0.00
2012-5-11,70.7,63.6,58.9,62.7,59.8,56.7,95,88,73,30.12,30.01,5,3,8,0.00
2012-5-12,66.8,62.0,59.0,61.2,59.0,56.7,95,90,79,30.02,29.85,7,4,13,0.00
2012-5-13,65.2,61.2,58.9,60.3,58.7,56.8,96,91,80,29.86,29.80,6,3,9,0.00
2012-5-14,61.8,57.6,53.2,60.4,53.0,51.0,95,85,78,29.95,29.84,8,5,13,0.00
2012-5-15,71.9,64.3,53.1,60.2,55.1,46.9,93,74,44,29.84,29.68,5,2,12,0.13
2012-5-16,69.9,62.2,58.5,57.0,55.5,53.9,93,79,58,29.79,29.70,6,3,14,0.05
2012-5-17,75.9,69.0,62.2,55.7,52.9,48.9,79,58,40,29.74,29.67,8,4,11,0.00
2012-5-18,64.8,60.7,57.0,60.8,57.9,55.6,97,90,80,29.84,29.69,9,4,14,0.75
2012-5-19,65.3,59.4,54.8,59.4,56.5,54.2,99,91,76,29.92,29.83,7,3,11,0.01
2012-5-20,61.2,59.7,58.3,59.3,57.5,56.1,96,92,85,29.97,29.93,4,2,6,0.16
2012-5-21,71.7,64.4,57.4,61.4,58.0,55.4,97,81,62,29.99,29.92,7,3,10,0.00
2012-5-22,83.2,70.0,57.7,62.9,58.0,49.7,95,69,33,29.92,29.64,6,2,8,0.03
2012-5-23,76.2,67.5,59.0,59.1,54.1,45.8,80,63,39,29.84,29.72,8,2,12,0.00
2012-5-24,76.4,67.2,60.3,59.0,54.3,44.9,93,66,33,29.84,29.74,6,3,12,0.00
2012-5-25,70.4,66.0,60.7,60.2,58.0,56.1,96,76,62,29.87,29.76,5,3,8,0.28
2012-5-26,65.7,60.0,56.9,57.1,55.9,54.2,97,87,68,30.04,29.94,7,3,11,0.04
2012-5-27,70.7,61.5,55.4,60.8,57.0,53.6,95,86,69,30.02,29.88,9,4,12,0.01
2012-5-28,67.7,61.8,58.3,61.1,58.3,55.0,98,89,72,29.89,29.74,6,2,9,0.28
2012-5-29,72.7,67.7,62.0,60.0,56.2,48.5,86,68,44,29.87,29.82,8,4,13,0.00
2012-5-30,73.1,65.8,61.5,59.7,56.7,52.3,89,73,49,29.97,29.85,6,2,8,0.00
2012-5-31,73.3,68.8,61.1,60.4,57.3,53.1,85,67,50,30.01,29.96,6,2,9,0.00
2012-6-1,76.0,67.8,58.1,61.5,57.3,53.6,95,71,49,30.01,29.94,8,2,11,0.00
2012-6-2,79.5,72.7,65.2,63.8,59.4,53.6,88,65,43,30.08,29.96,7,3,12,0.00
2012-6-3,84.5,74.1,64.4,64.0,60.7,57.4,87,64,46,30.07,29.98,7,2,10,0.00
2012-6-4,83.8,74.3,63.5,64.3,58.6,53.8,78,59,39,29.98,29.81,7,2,12,0.00
2012-6-5,86.8,77.0,66.7,65.8,61.2,51.9,91,61,31,29.81,29.68,6,2,13,0.05
2012-6-6,75.3,70.2,65.8,64.5,61.6,56.4,88,75,62,29.82,29.69,7,3,10,0.02
2012-6-7,72.8,66.9,61.3,62.4,55.6,50.9,89,68,51,29.95,29.82,7,3,12,0.01
2012-6-8,77.4,73.1,63.4,57.6,55.0,51.8,70,54,43,30.02,29.93,7,4,14,0.00
2012-6-10,75.4,70.2,66.2,65.5,63.9,62.6,90,81,70,29.95,29.82,8,6,14,0.00
2012-6-11,84.5,76.7,66.0,70.0,67.3,63.0,91,73,57,29.83,29.71,6,3,8,0.00
2012-6-12,90.7,83.8,70.9,68.5,61.4,53.4,86,48,31,29.77,29.72,6,3,8,0.00
2012-6-13,93.2,82.8,72.0,68.1,62.7,52.5,72,52,31,29.79,29.73,5,2,7,0.00
2012-6-14,85.3,77.1,70.9,69.2,65.5,60.6,92,69,46,29.92,29.74,9,4,13,0.00
2012-6-15,79.1,74.8,69.9,69.1,67.9,66.2,93,80,67,30.06,29.92,11,6,17,0.00
2012-6-16,80.3,73.9,69.2,69.0,66.2,56.7,93,78,45,30.14,30.03,12,7,24,0.00
2012-6-17,76.4,71.2,66.3,65.4,62.3,58.3,90,74,56,30.13,30.08,12,7,17,0.00
2012-6-18,77.5,73.9,67.9,68.0,65.1,61.4,91,75,59,30.09,29.99,12,8,19,0.00
2012-6-19,79.0,73.5,69.0,67.7,65.5,62.1,89,76,66,29.99,29.90,13,8,21,0.00
2012-6-20,79.0,74.1,69.5,67.0,65.3,61.1,85,75,56,29.91,29.83,12,8,20,0.00
2012-6-21,78.2,73.5,69.3,67.7,64.7,61.3,84,74,58,29.86,29.81,11,7,16,0.00
2012-6-22,80.9,77.4,72.6,68.8,66.7,63.1,87,70,56,29.89,29.83,10,6,13,0.00
2012-6-23,84.1,76.8,71.6,72.1,69.7,65.2,96,79,54,29.96,29.88,8,4,16,0.00
2012-6-24,82.0,76.7,71.5,74.3,70.9,63.7,94,83,56,29.97,29.89,11,6,18,0.00
2012-6-25,81.4,76.6,72.8,72.0,70.5,67.1,91,82,64,29.91,29.83,9,6,14,0.00
2012-6-26,86.2,77.0,70.2,71.3,68.7,63.6,97,77,50,29.92,29.80,9,5,15,0.00
2012-6-27,77.5,73.2,69.5,70.0,66.0,61.4,95,79,60,29.97,29.91,9,6,15,0.13
2012-6-28,77.5,73.9,69.3,63.7,59.8,54.5,78,62,46,29.99,29.94,9,6,14,0.00
2012-6-29,79.7,72.5,65.0,63.8,59.4,49.5,83,65,36,29.98,29.93,8,4,13,0.00
2012-6-30,78.9,72.1,65.6,65.7,62.7,60.6,85,73,60,30.02,29.98,10,3,16,0.00
2012-7-2,77.9,72.7,68.8,64.0,61.0,56.5,78,67,49,30.08,30.00,10,5,21,0.00
2012-7-5,88.5,82.3,74.9,71.7,66.6,61.8,88,61,46,29.85,29.81,8,4,12,0.00
2012-7-6,81.7,76.7,72.7,72.3,68.9,65.3,94,78,59,29.86,29.82,9,5,15,0.00
2012-7-7,77.9,72.2,70.1,71.2,69.5,68.3,96,91,79,29.85,29.82,2,1,3,0.00
2012-7-8,83.8,80.5,76.7,70.7,69.3,67.7,79,69,61,29.78,29.76,10,6,12,0.00
2012-7-9,84.8,80.9,75.8,72.6,70.8,68.3,88,72,59,29.85,29.81,8,5,11,0.00
2012-7-10,91.0,81.8,72.2,72.9,67.5,58.6,96,66,37,29.85,29.80,6,2,10,0.00
2012-7-11,91.0,81.7,72.5,71.8,63.5,53.8,88,58,30,29.88,29.83,7,3,12,0.00
2012-7-12,91.9,81.2,71.7,71.8,65.3,52.2,94,64,28,29.88,29.80,6,3,10,0.00
2012-7-13,87.8,83.0,76.4,74.6,71.8,63.9,89,70,50,29.85,29.81,9,5,14,0.00
2012-7-14,85.3,79.5,74.6,73.2,72.1,70.2,92,79,63,29.91,29.82,8,5,12,0.00
2012-7-15,85.7,79.3,73.6,74.1,71.9,68.5,93,79,62,29.90,29.81,9,5,12,0.00
2012-7-16,75.4,75.2,74.9,70.6,70.4,70.1,86,85,84,29.82,29.81,4,2,4,0.00
2012-7-18,76.4,76.0,75.5,66.7,66.4,66.2,73,72,72,29.95,29.94,6,6,11,0.00
2012-7-19,81.1,78.2,73.1,64.8,63.5,61.4,74,61,52,29.98,29.90,12,8,19,0.00
2012-7-20,81.9,76.4,71.4,71.3,69.0,64.5,87,78,69,29.90,29.84,11,6,17,0.00
2012-7-21,81.2,76.0,71.5,71.3,69.6,67.8,92,81,66,29.89,29.81,10,6,20,0.00
2012-7-22,82.8,77.5,72.4,74.3,71.6,68.8,94,82,65,29.82,29.76,10,6,16,0.00
2012-7-23,82.5,76.0,73.7,75.1,73.0,72.0,95,90,74,29.83,29.78,9,4,14,0.00
2012-7-24,85.6,81.7,78.1,76.0,74.9,72.9,92,80,68,29.87,29.85,10,6,17,0.00
2012-7-25,86.6,80.2,75.8,76.2,75.1,73.9,96,85,69,29.86,29.76,9,4,15,0.00
2012-7-26,86.2,80.7,76.8,75.6,74.4,73.0,94,82,67,29.77,29.71,10,5,15,0.00
2012-7-27,86.1,80.6,76.9,75.7,74.2,71.5,92,82,64,29.74,29.70,9,5,15,0.00
2012-7-28,86.0,80.7,76.7,75.0,72.2,64.7,91,76,52,29.73,29.67,10,5,20,0.00
2012-7-29,85.8,79.9,75.2,75.1,73.3,71.0,95,81,64,29.76,29.72,9,4,12,0.00
2012-7-30,88.7,83.1,77.0,74.9,71.5,62.9,86,69,46,29.76,29.71,7,4,13,0.00
2012-7-31,85.9,80.1,75.6,74.8,71.2,66.0,91,75,55,29.81,29.74,11,5,17,0.01
2012-8-1,80.7,75.5,70.8,66.9,64.1,58.7,81,68,49,29.86,29.79,8,3,15,0.02
2012-8-2,85.1,77.2,69.5,72.2,68.1,62.9,89,74,52,29.85,29.80,8,3,12,0.00
2012-8-3,83.9,77.0,71.9,71.7,70.3,69.0,92,80,63,29.86,29.82,7,2,9,0.00
2012-8-4,83.8,75.7,72.3,73.4,70.9,68.5,96,86,62,29.87,29.84,5,1,5,0.00
2012-8-6,92.5,85.9,77.4,76.2,69.4,61.6,92,60,37,29.94,29.89,7,4,12,0.00
2012-8-7,91.3,82.1,75.3,76.3,72.5,63.0,96,75,41,29.91,29.85,8,4,13,0.01
2012-8-8,87.7,78.2,75.3,76.6,74.7,70.5,98,90,58,29.92,29.85,5,2,8,0.01
2012-8-9,83.9,82.5,78.4,75.0,73.3,72.2,89,74,69,29.95,29.91,7,6,11,0.00
2012-8-10,84.0,80.6,76.5,71.3,68.7,65.9,83,68,56,29.92,29.83,12,7,19,0.00
2012-8-11,82.7,78.5,75.6,72.0,69.9,68.3,85,76,64,29.83,29.78,11,6,22,0.00
2012-8-27,84.8,78.3,72.2,71.3,68.2,65.5,88,72,61,29.79,29.66,8,5,15,0.22
2012-8-28,73.1,68.7,65.2,66.9,62.3,56.6,96,81,63,30.05,29.78,10,5,15,0.52
2012-8-29,75.1,68.7,61.2,61.7,57.2,54.1,89,68,51,30.11,30.03,8,3,14,0.00
2012-8-30,75.1,71.3,64.1,61.2,57.6,52.8,81,63,48,30.09,30.02,10,6,18,0.00
2012-8-31,69.3,68.0,66.0,62.1,60.9,59.7,84,78,72,30.04,30.01,5,3,7,0.00
2012-9-1,77.3,73.6,68.1,66.1,63.6,61.3,80,71,59,30.10,30.03,11,7,17,0.00
2012-9-2,75.8,72.7,69.0,65.9,63.5,60.4,76,73,69,30.15,30.10,10,7,15,0.00
2012-9-3,70.1,69.7,68.7,63.0,62.4,59.7,80,78,73,30.12,29.99,6,5,8,0.00
2012-9-4,72.8,71.9,69.2,67.6,66.6,62.8,87,83,80,29.99,29.92,8,6,12,0.00
2012-9-5,72.3,71.2,70.7,67.5,66.8,65.9,89,86,81,29.94,29.90,5,4,7,0.00
2012-9-6,71.3,70.9,70.4,68.2,67.8,67.3,90,90,89,29.90,29.86,4,2,6,0.00
2012-9-7,77.3,72.4,69.2,68.4,66.3,63.0,92,81,63,30.03,29.86,12,6,19,0.00
2012-9-8,72.5,68.7,66.8,63.9,57.2,53.6,83,67,52,30.04,30.00,11,6,17,0.00
2012-9-11,72.3,69.9,66.3,60.6,58.0,56.2,78,66,59,30.10,29.97,13,8,24,0.00
2012-9-12,73.1,70.6,66.0,62.8,61.3,56.0,81,73,66,29.97,29.82,10,6,17,0.00
2012-9-15,77.4,76.9,76.0,57.2,56.3,55.4,51,49,47,29.82,29.80,4,2,5,0.00
2012-9-16,80.6,75.1,71.5,68.0,64.3,55.8,85,70,49,29.85,29.77,15,8,30,0.00
2012-9-17,72.3,72.0,71.5,69.1,68.5,67.8,90,89,88,29.90,29.87,6,4,8,0.02
2012-9-18,71.4,69.6,68.9,68.4,67.6,67.3,96,93,88,29.91,29.89,6,5,7,0.26
2012-9-19,69.7,68.1,66.2,67.8,65.4,63.2,94,91,87,29.89,29.87,6,3,12,0.00
2012-9-20,68.7,67.1,64.9,63.1,62.3,61.4,92,85,78,29.88,29.85,2,1,3,0.00
2012-9-21,68.1,61.4,58.0,63.2,54.5,50.8,85,78,75,30.04,29.85,4,2,6,0.17
2012-9-22,69.6,61.7,55.5,52.0,50.0,47.6,80,66,49,30.07,30.02,7,3,11,0.00
2012-9-23,69.0,66.4,63.7,55.2,53.5,51.8,66,63,60,30.07,30.06,4,2,4,0.00
2012-9-24,68.5,66.1,64.7,60.7,60.0,59.2,84,81,76,29.89,29.87,2,0,3,0.00
2012-9-25,65.6,65.3,65.0,60.9,60.5,60.0,85,84,84,29.87,29.86,1,1,2,0.00
2012-9-28,68.5,68.3,68.2,65.9,65.8,65.5,92,92,91,30.08,30.08,5,4,7,0.00
2012-9-30,73.2,70.2,68.4,66.6,65.9,65.3,90,86,79,30.09,30.06,11,7,18,0.00
2012-10-1,69.9,68.7,68.0,65.7,65.2,64.6,90,89,86,30.09,30.07,7,4,10,0.00
2012-10-2,68.3,67.0,66.3,65.3,64.5,64.0,94,92,90,30.08,30.04,4,1,4,0.00
2012-10-3,77.0,71.9,69.7,68.6,67.4,63.9,95,86,68,29.92,29.88,5,3,8,0.00
2012-10-4,71.1,67.9,65.1,68.2,65.3,61.8,96,91,84,29.94,29.91,4,2,7,0.00
2012-10-5,72.8,68.7,64.5,66.0,64.2,61.5,90,86,68,30.09,29.93,7,3,11,0.00
2012-10-10,69.6,64.8,61.3,54.9,53.2,47.8,76,67,49,29.91,29.86,8,4,13,0.00
2012-10-11,62.0,59.5,57.4,55.8,54.3,53.2,89,83,75,29.97,29.83,4,1,5,0.00
2012-10-12,59.2,57.9,56.6,57.0,55.3,53.9,95,91,87,30.03,29.97,2,0,3,0.00
2012-10-13,77.9,72.9,68.0,56.8,55.0,50.4,67,54,39,29.97,29.95,4,1,8,0.00
2012-10-14,73.7,71.9,70.4,61.1,59.3,58.4,72,65,61,29.94,29.90,3,2,8,0.00
2012-10-15,70.4,69.8,69.2,63.5,62.7,61.7,82,78,74,29.96,29.95,3,2,5,0.00
2012-10-16,77.6,74.1,73.0,62.3,59.1,56.7,64,60,54,30.08,30.03,3,2,4,0.00
2012-10-17,73.4,70.5,68.0,61.3,59.8,58.1,79,69,59,30.17,30.06,5,4,7,0.00
2012-10-18,68.0,65.6,64.2,60.8,59.7,58.6,83,81,77,30.22,30.17,7,5,10,0.00
2012-10-19,69.1,63.8,59.8,58.9,56.1,53.6,87,76,62,30.23,30.13,9,4,13,0.00
2012-10-20,67.7,60.9,57.6,58.1,54.9,50.4,94,81,56,30.13,30.03,7,3,12,0.03
2012-10-21,69.8,63.0,56.6,64.4,58.4,54.9,97,86,62,30.03,29.94,10,4,13,0.13
2012-10-22,71.4,67.3,65.4,65.8,64.1,63.3,95,90,78,29.99,29.92,9,6,14,0.00
2012-10-23,66.6,62.4,59.0,64.1,59.9,56.1,97,92,81,30.01,29.94,9,4,13,0.45
2012-10-24,63.6,61.5,60.6,60.6,56.9,54.5,97,85,74,30.06,29.97,9,6,14,0.06
2012-10-25,65.3,61.8,56.6,56.1,54.6,52.8,90,78,66,30.02,29.89,7,3,11,0.00
2012-10-26,67.9,60.6,54.4,60.2,56.1,52.4,96,86,70,29.89,29.83,5,2,12,0.01
2012-10-27,71.3,64.3,56.3,58.5,55.3,53.4,95,74,54,29.90,29.78,6,3,14,0.01
2012-10-28,77.2,72.0,67.7,60.5,57.3,54.7,71,60,47,29.83,29.75,8,4,16,0.00
2012-10-29,77.4,70.8,61.0,59.6,56.2,53.3,87,60,46,29.82,29.72,6,2,17,0.08
2012-10-30,68.5,60.6,54.3,59.7,54.7,47.5,96,82,49,29.98,29.62,13,4,17,0.56
2012-10-31,55.0,53.8,53.0,51.5,51.0,50.5,93,90,88,29.98,29.97,2,1,2,0.00
2012-11-5,67.3,66.4,65.2,59.3,57.6,56.1,79,73,68,29.88,29.85,4,3,8,0.00
2012-11-7,57.7,56.0,52.5,55.9,53.8,50.9,97,92,80,30.10,29.99,6,3,10,0.91
2012-11-8,57.8,55.5,53.1,53.5,48.0,43.5,97,77,60,30.14,30.07,14,9,29,0.28
2012-11-10,56.9,54.5,51.3,52.3,49.7,47.2,95,84,71,30.18,30.04,10,5,17,0.24
2012-11-11,60.1,57.0,53.6,51.8,49.4,47.6,92,76,65,30.30,30.18,10,5,21,0.05
2012-11-14,55.3,54.0,53.1,48.4,47.7,47.1,81,79,76,30.25,30.23,3,2,4,0.00
2012-11-15,55.0,54.6,54.4,51.7,49.6,48.4,89,83,80,30.23,30.21,2,1,4,0.00
2012-11-18,57.9,55.0,54.8,54.7,53.1,52.8,94,93,89,30.11,30.09,4,2,4,0.02
2012-11-19,61.6,57.6,52.9,55.3,54.3,52.1,97,89,76,30.12,30.07,8,4,12,0.01
2012-11-20,55.8,55.7,55.5,53.5,53.2,53.1,93,91,91,30.11,30.11,6,5,7,0.00
2012-11-21,61.7,58.0,55.1,56.0,53.0,50.3,93,84,75,30.15,30.10,9,6,16,0.00
2012-11-22,56.2,54.0,52.0,53.4,50.8,47.6,96,89,80,30.20,30.13,12,8,20,0.27
2012-11-23,56.2,52.5,50.3,49.0,47.8,45.4,93,84,73,30.23,30.19,12,6,18,0.02